Location: Breungeshain
(50.5000°N, 9.2000°E)
Time: 09:47:44
(UTC+00:00)

ISS - Pass Details

Date: 27 May 2017
Orbit: 402 x 409 km, 51.6° (Epoch: 24 May)

Event Time Altitude Azimuth Distance (km) Brightness Sun altitude
Rises 20:27:34 0° 243° (WSW) 2,328 0.2 -8.6°
Reaches altitude 10° 20:29:39 10° 240° (WSW) 1,468 -0.9 -8.8°
Maximum altitude 20:32:55 63° 158° (SSE) 459 -3.8 -9.1°
Drops below altitude 10° 20:36:10 10° 77° (ENE) 1,471 -1.2 -9.5°
Sets 20:38:16 0° 74° (ENE) 2,332 -0.2 -9.7°
